Date String (YYYY-MM-DD hh:mm:ss) UTC,Instrument flags,Ambient pressure (hPa),Sample flow (lpm),Bypass flow (lpm),Sample temperature (°C),Ambient temperature (°C),ASC tube jacket temperature (°C),LED temperature (°C),Box temperature (°C),Sample RH (%),Span deviation,Mass concentration (μg/m³),Mass concentration (μg/m³),Mass concentration (μg/m³)
DateTimeUTC,F1_M11,P_M11,Q1_M11,Q2_M11,T1_M11,T2_M11,T3_M11,T4_M11,T5_M11,U1_M11,ZSPAN_M11,X0_M11,X2_M11,X1_M11
2023-02-23 07:00:00,,0816.3,4.97,0.00,22.7,21.7,00.0,31.4,24.2,03.1,0000.9,0006.75,0003.36,0003.06
2023-02-23 07:01:00,,0816.3,5.00,0.00,22.6,21.2,00.0,31.4,24.1,03.1,0001.3,0006.92,0003.42,0003.13
2023-02-23 07:02:00,,0816.4,5.00,0.00,22.5,20.9,00.0,31.3,23.9,03.1,0001.7,0006.88,0003.46,0003.17
2023-02-23 07:03:00,,0816.4,5.00,0.00,22.5,20.6,00.0,31.3,23.9,03.2,0002.1,0006.58,0003.49,0003.21
2023-02-23 07:04:00,,0816.4,5.01,0.00,22.5,21.2,00.0,31.3,24.0,03.2,0001.7,0006.58,0003.52,0003.23
2023-02-23 07:05:00,,0816.5,4.96,0.00,22.6,22.2,00.0,31.3,24.3,03.1,0001.9,0006.68,0003.53,0003.23
2023-02-23 07:06:00,,0816.4,4.99,0.00,22.7,23.0,00.0,31.3,24.5,03.1,0001.1,0005.85,0003.54,0003.23
2023-02-23 07:07:00,,0816.4,4.99,0.00,22.7,23.1,00.0,31.3,24.6,03.1,0000.0,0005.73,0003.54,0003.20
2023-02-23 07:08:00,,0816.5,5.00,0.00,22.7,22.4,00.0,31.3,24.4,03.1,0000.4,0005.81,0003.53,0003.17
2023-02-23 07:09:00,,0816.5,4.99,0.00,22.7,21.8,00.0,31.4,24.2,03.1,0000.0,0005.88,0003.50,0003.16
2023-02-23 07:10:00,,0816.5,4.97,0.00,22.6,21.4,00.0,31.4,24.1,03.1,0000.0,0005.71,0003.47,0003.13
2023-02-23 07:11:00,,0816.5,5.00,0.00,22.6,21.0,00.0,31.3,24.0,03.1,0000.0,0005.74,0003.47,0003.12
2023-02-23 07:12:00,,0816.5,4.99,0.00,22.5,20.7,00.0,31.3,23.9,03.2,0000.0,0005.73,0003.45,0003.09
2023-02-23 07:13:00,,0816.5,5.02,0.00,22.5,21.2,00.0,31.3,24.0,03.2,0000.0,0005.77,0003.43,0003.04
2023-02-23 07:14:00,,0816.5,4.99,0.00,22.6,22.2,00.0,31.3,24.3,03.1,0000.0,0005.83,0003.41,0003.00
2023-02-23 07:15:00,,0816.5,4.99,0.00,22.7,23.0,00.0,31.3,24.5,03.1,0000.0,0005.86,0003.37,0002.96
2023-02-23 07:16:00,,0816.5,5.00,0.00,22.8,23.5,00.0,31.3,24.7,03.1,0000.0,0005.73,0003.34,0002.92
2023-02-23 07:17:00,,0816.5,4.98,0.00,22.8,23.1,00.0,31.4,24.6,03.1,0000.0,0005.57,0003.32,0002.89
2023-02-23 07:18:00,,0816.6,4.99,0.00,22.8,22.4,00.0,31.4,24.4,03.1,0000.0,0005.66,0003.29,0002.86
2023-02-23 07:19:00,,0816.8,4.98,0.00,22.7,21.8,00.0,31.4,24.3,03.1,0000.0,0005.40,0003.24,0002.83
2023-02-23 07:20:00,,0816.7,5.01,0.00,22.7,21.3,00.0,31.4,24.1,03.1,0000.0,0005.62,0003.23,0002.82
2023-02-23 07:21:00,,0816.6,5.00,0.00,22.6,21.0,00.0,31.4,24.0,03.1,0000.0,0006.16,0003.21,0002.81
2023-02-23 07:22:00,,0816.6,5.00,0.00,22.5,20.6,00.0,31.3,23.9,03.1,0000.0,0006.08,0003.20,0002.82
2023-02-23 07:23:00,,0816.8,5.01,0.00,22.5,20.9,00.0,31.3,24.0,03.1,0000.0,0006.18,0003.20,0002.81
2023-02-23 07:24:00,,0817.0,4.98,0.00,22.6,22.0,00.0,31.3,24.3,03.1,0000.0,0006.13,0003.19,0002.79
2023-02-23 07:25:00,,0816.7,5.00,0.00,22.7,22.9,00.0,31.3,24.5,03.1,0000.0,0006.12,0003.20,0002.79
2023-02-23 07:26:00,,0816.7,5.00,0.00,22.8,23.2,00.0,31.3,24.7,03.1,0000.0,0006.10,0003.21,0002.81
2023-02-23 07:27:00,,0816.8,5.00,0.00,22.8,22.6,00.0,31.4,24.5,03.1,0000.0,0006.75,0003.22,0002.81
2023-02-23 07:28:00,,0816.8,5.00,0.00,22.7,22.0,00.0,31.4,24.3,03.1,0000.0,0007.00,0003.22,0002.80
2023-02-23 07:29:00,,0817.2,5.00,0.00,22.7,21.4,00.0,31.4,24.2,03.1,0000.0,0006.94,0003.24,0002.80
2023-02-23 07:30:00,,0817.2,5.02,0.00,22.6,21.0,00.0,31.4,24.0,03.1,0000.0,0006.91,0003.24,0002.81
2023-02-23 07:31:00,,0817.0,5.00,0.00,22.5,20.6,00.0,31.4,23.9,03.2,0000.0,0006.71,0003.25,0002.81
2023-02-23 07:32:00,,0816.9,4.99,0.00,22.5,20.9,00.0,31.3,24.0,03.2,0000.0,0006.76,0003.26,0002.81
2023-02-23 07:33:00,,0816.8,5.00,0.00,22.6,21.9,00.0,31.3,24.3,03.2,0000.0,0006.98,0003.28,0002.80
2023-02-23 07:34:00,,0816.9,4.99,0.00,22.7,22.8,00.0,31.3,24.5,03.2,0000.0,0006.89,0003.26,0002.77
2023-02-23 07:35:00,,0816.8,4.99,0.00,22.7,23.2,00.0,31.3,24.6,03.1,0000.0,0006.72,0003.23,0002.74
2023-02-23 07:36:00,,0816.9,5.01,0.00,22.7,22.6,00.0,31.4,24.5,03.2,0000.0,0006.72,0003.23,0002.73
2023-02-23 07:37:00,,0816.8,5.01,0.00,22.7,22.0,00.0,31.4,24.3,03.2,0000.0,0006.46,0003.19,0002.69
2023-02-23 07:38:00,,0816.7,4.99,0.00,22.6,21.4,00.0,31.4,24.2,03.2,0000.0,0006.08,0003.17,0002.67
2023-02-23 07:39:00,,0816.8,5.00,0.00,22.6,20.9,00.0,31.4,23.9,03.2,0000.0,0005.60,0003.19,0002.66
2023-02-23 07:40:00,,0816.9,5.01,0.00,22.5,20.6,00.0,31.3,23.8,03.2,0000.0,0005.62,0003.19,0002.66
2023-02-23 07:41:00,,0816.9,5.01,0.00,22.4,20.7,00.0,31.3,23.9,03.2,0000.0,0006.61,0003.19,0002.65
2023-02-23 07:42:00,,0817.3,5.00,0.00,22.5,21.7,00.0,31.3,24.2,03.2,0000.0,0006.68,0003.21,0002.65
2023-02-23 07:43:00,,0817.0,4.96,0.00,22.6,22.7,00.0,31.3,24.4,03.2,0000.0,0006.08,0003.22,0002.65
2023-02-23 07:44:00,,0817.0,4.99,0.00,22.7,23.1,00.0,31.3,24.5,03.2,0000.0,0005.82,0003.20,0002.64
2023-02-23 07:45:00,,0816.9,5.01,0.00,22.7,22.5,00.0,31.3,24.4,03.2,0000.0,0005.77,0003.20,0002.64
2023-02-23 07:46:00,,0817.0,5.01,0.00,22.7,21.9,00.0,31.3,24.3,03.2,0000.0,0005.79,0003.21,0002.65
2023-02-23 07:47:00,,0817.0,5.03,0.00,22.6,21.3,00.0,31.3,24.1,03.2,0000.0,0005.78,0003.21,0002.65
2023-02-23 07:48:00,,0817.0,4.99,0.00,22.5,20.8,00.0,31.3,23.9,03.2,0000.0,0005.85,0003.23,0002.65
2023-02-23 07:49:00,,0817.0,5.00,0.00,22.5,20.4,00.0,31.3,23.8,03.2,0000.0,0005.90,0003.21,0002.64
2023-02-23 07:50:00,,0816.9,5.01,0.00,22.4,20.5,00.0,31.3,23.8,03.2,0000.0,0006.78,0003.18,0002.64
2023-02-23 07:51:00,,0816.9,5.03,0.00,22.5,21.6,00.0,31.2,24.1,03.2,0000.0,0006.77,0003.14,0002.64
2023-02-23 07:52:00,,0817.2,4.97,0.00,22.6,22.6,00.0,31.2,24.4,03.2,0000.0,0006.38,0003.15,0002.65
2023-02-23 07:53:00,,0817.0,4.98,0.00,22.7,23.3,00.0,31.3,24.6,03.2,0000.0,0006.92,0003.12,0002.65
2023-02-23 07:54:00,,0817.3,5.01,0.00,22.8,23.2,00.0,31.3,24.6,03.2,0000.0,0006.93,0003.12,0002.65
2023-02-23 07:55:00,,0817.2,5.00,0.00,22.7,22.5,00.0,31.3,24.4,03.1,0000.0,0006.90,0003.13,0002.66
2023-02-23 07:56:00,,0816.9,5.00,0.00,22.7,21.8,00.0,31.3,24.2,03.1,0000.0,0006.88,0003.13,0002.68
2023-02-23 07:57:00,,0816.9,5.02,0.00,22.6,21.2,00.0,31.3,24.0,03.2,0000.0,0006.98,0003.15,0002.70
2023-02-23 07:58:00,,0816.9,4.99,0.00,22.5,20.8,00.0,31.3,23.9,03.2,0000.0,0007.07,0003.17,0002.72
2023-02-23 07:59:00,,0817.0,5.00,0.00,22.4,20.4,00.0,31.3,23.7,03.2,0000.0,0007.28,0003.18,0002.73
